Weather History for Pensacola NAS, FL

Change the Weather History Date:

Friday, August 16, 2013

  Actual Average Record
Temperature  
Mean Temperature 76 °F -  
Max Temperature 81 °F 87 °F 92 °F (2006)
Min Temperature 73 °F 72 °F 66 °F (2004)
Cooling Degree Days 12    
Growing Degree Days 26 (Base 50)    
Moisture  
Dew Point 74 °F    
Average Humidity 93    
Maximum Humidity 100    
Minimum Humidity 79    
Precipitation  
Precipitation 0.02 in - - ()
Sea Level Pressure  
Sea Level Pressure 29.97 in    
Wind  
Wind Speed 4 mph (NE)    
Max Wind Speed 14 mph    
Max Gust Speed -    
Visibility 7 miles    
Events Rain , Thunderstorm    
Averages and records for this station are not official NWS values.
T = Trace of Precipitation, MM = Missing Value Source: NWS Daily Summary

Daily Weather History Graph

Daily Weather History Graph

Search for Another Location

Airport:

Trip Planner

Search our weather history database for the weather conditions in past years. The results will help you decide how hot, cold, wet, or windy it might be!

Date:

Astronomy

Aug. 16, 2013 Rise Set
Actual Time 6:16 AM CDT 7:29 PM CDT
Civil Twilight 5:51 AM CDT 7:54 PM CDT
Nautical Twilight 5:21 AM CDT 8:24 PM CDT
Astronomical Twilight 4:50 AM CDT 8:55 PM CDT
Moon 3:40 PM CDT (8/16) 1:27 AM CDT (8/16)
Length of Visible Light 14h 02m
Length of Day
13h 12m
Waxing Gibbous, 75% of the Moon is Illuminated
Aug 16
Waxing Gibbous
Aug 20
Full
Aug 28
Last Quarter
Sep 5
New
Sep 12
First Quarter

Hourly Weather History & Observations

Time (CDT) Temp. Heat Index Dew Point Humidity Pressure Visibility Wind Dir Wind Speed Gust Speed Precip Events Conditions
12:56 AM 75.9 °F - 75.0 °F 97% 29.95 in 10.0 mi Calm Calm - N/A   Mostly Cloudy
1:11 AM 77.0 °F - 75.2 °F 94% 29.94 in 10.0 mi Calm Calm - N/A   Overcast
1:56 AM 77.0 °F - 75.0 °F 94% 29.94 in 10.0 mi Calm Calm - 0.00 in   Scattered Clouds
2:56 AM 75.9 °F - 75.0 °F 97% 29.93 in 10.0 mi NNE 3.5 mph - N/A   Clear
3:56 AM 75.0 °F - 73.9 °F 96% 29.93 in 8.0 mi North 3.5 mph - N/A   Scattered Clouds
4:49 AM 73.4 °F - 73.4 °F 100% 29.92 in 6.0 mi NNW 3.5 mph - N/A   Scattered Clouds
4:56 AM 73.9 °F - 73.9 °F 100% 29.93 in 5.0 mi NNW 3.5 mph - N/A   Mostly Cloudy
5:13 AM 73.4 °F - 73.4 °F 100% 29.93 in 1.8 mi North 3.5 mph - N/A   Overcast
5:46 AM 73.4 °F - 73.4 °F 100% 29.94 in 2.0 mi East 3.5 mph - N/A   Overcast
5:56 AM 73.9 °F - 73.9 °F 100% 29.94 in 2.0 mi NE 4.6 mph - N/A   Mostly Cloudy
6:24 AM 73.4 °F - 73.4 °F 100% 29.94 in 0.8 mi North 3.5 mph - N/A   Mostly Cloudy
6:44 AM 75.2 °F - 75.2 °F 100% 29.94 in 1.8 mi NNE 5.8 mph - N/A   Mostly Cloudy
6:56 AM 75.0 °F - 75.0 °F 100% 29.96 in 2.0 mi North 6.9 mph - N/A   Mostly Cloudy
7:11 AM 75.2 °F - 75.2 °F 100% 29.96 in 1.5 mi NNE 6.9 mph - N/A   Overcast
7:42 AM 75.2 °F - 75.2 °F 100% 29.97 in 2.0 mi NNE 8.1 mph - N/A   Overcast
7:56 AM 75.9 °F - 75.0 °F 97% 29.97 in 2.5 mi NE 4.6 mph - N/A   Overcast
8:09 AM 75.2 °F - 75.2 °F 100% 29.97 in 3.0 mi NNE 8.1 mph - N/A   Overcast
8:56 AM 77.0 °F - 75.0 °F 94% 29.98 in 6.0 mi North 5.8 mph - N/A   Overcast
9:04 AM 77.0 °F - 75.2 °F 94% 29.98 in 7.0 mi NNE 3.5 mph - N/A   Overcast
9:14 AM 75.2 °F - 73.4 °F 94% 29.98 in 7.0 mi North 3.5 mph - N/A Thunderstorm Thunderstorm
9:36 AM 77.0 °F - 75.2 °F 94% 29.99 in 10.0 mi Calm Calm - N/A   Overcast
9:56 AM 77.0 °F - 75.0 °F 94% 30.00 in 10.0 mi Calm Calm - N/A   Overcast
10:13 AM 77.0 °F - 75.2 °F 94% 29.99 in 5.0 mi Calm Calm - 0.00 in Rain Light Rain
10:56 AM 77.0 °F - 75.9 °F 96% 29.99 in 5.0 mi ENE 4.6 mph - 0.01 in Rain Light Rain
11:31 AM 78.8 °F - 77.0 °F 94% 29.98 in 10.0 mi ENE 6.9 mph - 0.00 in Rain Light Rain
11:56 AM 79.0 °F - 75.9 °F 90% 29.99 in 10.0 mi ENE 6.9 mph - 0.00 in Rain Light Rain
12:36 PM 80.6 °F 86.2 °F 75.2 °F 84% 29.97 in 10.0 mi NE 3.5 mph - 0.00 in Rain Light Rain
12:56 PM 80.1 °F 85.4 °F 75.9 °F 87% 29.97 in 10.0 mi North 4.6 mph - 0.00 in   Overcast
1:56 PM 79.0 °F - 75.0 °F 88% 29.96 in 10.0 mi North 8.1 mph - N/A   Overcast
2:18 PM 78.8 °F - 75.2 °F 89% 29.95 in 10.0 mi North 5.8 mph - N/A   Overcast
2:56 PM 80.1 °F 85.1 °F 75.0 °F 85% 29.95 in 10.0 mi NNE 6.9 mph - N/A   Overcast
3:32 PM 80.6 °F 85.4 °F 73.4 °F 79% 29.94 in 10.0 mi North 6.9 mph - N/A   Overcast
3:56 PM 80.1 °F 84.5 °F 73.9 °F 81% 29.95 in 10.0 mi North 6.9 mph - N/A   Overcast
4:56 PM 80.1 °F 84.5 °F 73.9 °F 81% 29.96 in 10.0 mi NE 4.6 mph - N/A   Overcast
5:56 PM 79.0 °F - 73.9 °F 84% 29.96 in 10.0 mi ENE 4.6 mph - N/A   Overcast
6:56 PM 78.1 °F - 73.9 °F 87% 29.96 in 10.0 mi ENE 4.6 mph - N/A   Overcast
7:56 PM 77.0 °F - 73.0 °F 88% 29.99 in 10.0 mi East 4.6 mph - N/A   Overcast
8:56 PM 77.0 °F - 72.0 °F 84% 29.99 in 10.0 mi ENE 6.9 mph - N/A   Overcast
9:56 PM 78.1 °F - 73.0 °F 84% 30.01 in 10.0 mi East 6.9 mph - N/A   Overcast
10:47 PM 77.0 °F - 73.4 °F 89% 29.99 in 10.0 mi SSE 13.8 mph - 0.00 in Rain Light Rain
10:56 PM 77.0 °F - 73.0 °F 88% 29.99 in 10.0 mi South 11.5 mph - 0.00 in   Overcast
11:15 PM 75.2 °F - 73.4 °F 94% 30.00 in 10.0 mi SSE 11.5 mph - 0.00 in Rain Light Rain
11:33 PM 75.2 °F - 73.4 °F 94% 29.99 in 9.0 mi SSE 5.8 mph - 0.00 in Rain Light Rain
11:56 PM 75.0 °F - 73.0 °F 94% 30.00 in 8.0 mi ESE 3.5 mph - 0.01 in Rain Rain